Regional Weather Roundup
Issued by NWS

Home | Current Version | Previous Version | Text Only | Print | Product List | Glossary On
Versions: 1 2 3 4 5 6 7 8 9 10 11 12 13 14 15 16 17 18 19 20 21 22 23 24 25 26 27 28 29 30 31 32 33 34 35 36 37 38 39 40 41 42 43 44 45 46 47 48 49 50
893
ASUS43 KLSX 300157
RWRMO

WEATHER SUMMARY FOR MISSOURI
NATIONAL WEATHER SERVICE SPRINGFIELD MO
900 PM CDT FRI APR 29 2016

NOTE: "FAIR" INDICATES FEW OR NO CLOUDS BELOW 12,000 FEET WITH NO
       SIGNIFICANT WEATHER AND/OR OBSTRUCTIONS TO VISIBILITY.
       CURRENT SKY AND/OR WEATHER CONDITIONS ARE NOT AVAILABLE FOR
       CHILLICOTHE AND FARMINGTON.

MOZ001>031-035>038-043-044-053-054-300300-
...NORTHERN AND WESTERN MISSOURI...

CITY           SKY/WX    TMP DP  RH WIND       PRES   REMARKS
KANSAS CTY INT CLOUDY    51  48  89 E18       29.82R
LEE`S SUMMIT   LGT RAIN  53  51  93 E15G25    29.81R
ST JOSEPH      CLOUDY    51  47  86 E14G25    29.85F
CHILLICOTHE      N/A     51  48  89 NE10G17   29.91S

$$
MOZ066>068-077>081-088>096-101>105-300300-
...SOUTHWEST MISSOURI...

CITY           SKY/WX    TMP DP  RH WIND       PRES   REMARKS
SPRINGFIELD    LGT RAIN  60  57  89 NE9       29.82R
JOPLIN         HVY RAIN  59  58  96 E15G22    29.76F FOG
BRANSON        FOG       59  59 100 E13       29.81R VSB 1/8

$$
MOZ032>034-039>042-045>050-055>058-069>072-300300-
...CENTRAL MISSOURI...

CITY           SKY/WX    TMP DP  RH WIND       PRES   REMARKS
COLUMBIA       NOT AVBL
JEFFERSON CITY LGT RAIN  58  54  86 E8        29.91F
ROLLA          RAIN      56  54  93 NE9       29.90R FOG
SEDALIA        LGT RAIN  58  54  86 E6        29.91R
WARRENSBURG    TSTM      54  52  94 E13G29    29.85S

$$
MOZ051-052-059>065-300300-
...EAST CENTRAL MISSOURI...

CITY           SKY/WX    TMP DP  RH WIND       PRES   REMARKS
ST LOUIS INTL  CLOUDY    63  52  67 E12       29.96F

$$
MOZ072>076-082>087-097>100-106>115-300300-
...SOUTH CENTRAL AND SOUTHEAST MISSOURI...

CITY           SKY/WX    TMP DP  RH WIND       PRES   REMARKS
CAPE GIRARDEAU CLOUDY    60  57  89 E10       29.92R
POPLAR BLUFF   CLOUDY    61  58  90 NE7       29.88S
WEST PLAINS    CLOUDY    60  57  89 E8        29.86S FOG

$$



USA.gov is the U.S. government's official web portal to all federal, state and local government web resources and services.